GW6628 Weather Reports


Display with metric or nautical units.
time (UTC)temp
F
wind
direction
speed
MPH
gust
MPH
rain 1hr
in
rain 24hr
in
rain mn
in
humidity
%
barometer
mb
20260504050510 58 243 1.0 4.0 0.00 0.00 0.00 57 1013.1
20260504050025 59 261 1.0 3.0 0.00 0.00 0.00 55 1013.2
20260504045507 59 357 0.0 4.0 0.00 0.00 0.00 57 1013.5
20260504045007 60 82 0.0 4.0 0.00 0.00 0.00 56 1013.4
20260504044527 60 36 1.0 4.0 0.00 0.00 0.00 52 1013.6
20260504044009 60 89 2.0 6.0 0.00 0.00 0.00 52 1013.6
20260504043509 60 155 1.0 6.0 0.00 0.00 0.00 53 1013.6
20260504043028 60 92 2.0 8.0 0.00 0.00 0.00 53 1013.6
20260504042506 60 190 2.0 8.0 0.00 0.00 0.00 52 1013.6
20260504042008 60 209 4.0 10.0 0.00 0.00 0.00 52 1013.5
20260504041535 60 197 3.0 10.0 0.00 0.00 0.00 52 1013.5
20260504041002 60 209 5.0 12.0 0.00 0.00 0.00 53 1013.4
20260504040507 60 195 4.0 12.0 0.00 0.00 0.00 53 1013.4
20260504040008 60 201 5.0 12.0 0.00 0.00 0.00 54 1013.4
20260504035505 59 188 6.0 11.0 0.00 0.00 0.00 53 1013.3
20260504035004 59 227 3.0 12.0 0.00 0.00 0.00 53 1013.3
20260504034509 59 226 5.0 12.0 0.00 0.00 0.00 53 1013.2
20260504034002 59 196 6.0 12.0 0.00 0.00 0.00 54 1013.3
20260504033503 59 238 5.0 11.0 0.00 0.00 0.00 54 1013.5
20260504033010 59 189 5.0 10.0 0.00 0.00 0.00 54 1013.6
20260504032503 59 218 5.0 11.0 0.00 0.00 0.00 55 1013.7
20260504032007 59 205 4.0 11.0 0.00 0.00 0.00 55 1013.8
20260504031516 59 220 4.0 9.0 0.00 0.00 0.00 55 1013.9
20260504031007 59 230 4.0 9.0 0.00 0.00 0.00 57 1014.0
20260504030505 58 224 3.0 10.0 0.00 0.00 0.00 57 1014.1
20260504030004 58 189 3.0 10.0 0.00 0.00 0.00 58 1014.1
20260504025504 57 180 2.0 7.0 0.00 0.00 0.00 59 1014.2
20260504025004 56 210 2.0 7.0 0.00 0.00 0.00 62 1014.3
20260504024505 56 240 1.0 6.0 0.00 0.00 0.00 63 1014.3
20260504024003 55 209 2.0 4.0 0.00 0.00 0.00 65 1014.4
20260504023504 55 203 1.0 4.0 0.00 0.00 0.00 67 1014.4
20260504023009 55 208 1.0 5.0 0.00 0.00 0.00 69 1014.4
20260504022505 54 197 0.0 7.0 0.00 0.00 0.00 70 1014.4
20260504022007 54 210 2.0 7.0 0.00 0.00 0.00 68 1014.4
20260504021512 54 163 0.0 4.0 0.00 0.00 0.00 72 1014.4
20260504021007 53 186 1.0 3.0 0.00 0.00 0.00 73 1014.4
20260504020507 53 202 0.0 3.0 0.00 0.00 0.00 74 1014.4
20260504020031 53 220 0.0 3.0 0.00 0.00 0.00 74 1014.3
20260504015509 53 188 0.0 2.0 0.00 0.00 0.00 75 1014.4
20260504015010 53 188 0.0 2.0 0.00 0.00 0.00 77 1014.4
20260504014503 54 184 0.0 2.0 0.00 0.00 0.00 75 1014.5
20260504014006 54 184 0.0 2.0 0.00 0.00 0.00 73 1014.5
20260504013508 54 192 0.0 2.0 0.00 0.00 0.00 74 1014.5
20260504013007 55 192 0.0 2.0 0.00 0.00 0.00 73 1014.4
20260504012508 55 192 0.0 2.0 0.00 0.00 0.00 71 1014.4
20260504012004 56 192 0.0 1.0 0.00 0.00 0.00 68 1014.5
20260504011513 57 192 0.0 2.0 0.00 0.00 0.00 68 1014.4
20260504011003 58 192 0.0 2.0 0.00 0.00 0.00 65 1014.4
20260504010509 58 210 0.0 2.0 0.00 0.00 0.00 62 1014.4
20260504010016 59 210 0.0 2.0 0.00 0.00 0.00 61 1014.4
20260504005507 60 210 0.0 4.0 0.00 0.00 0.00 55 1014.3
20260504005006 61 210 2.0 4.0 0.00 0.00 0.00 52 1014.3
20260504004520 61 190 1.0 4.0 0.00 0.00 0.00 50 1014.1
20260504004010 62 215 2.0 5.0 0.00 0.00 0.00 50 1013.9
20260504003504 62 209 3.0 6.0 0.00 0.00 0.00 50 1013.7
20260504003004 62 202 2.0 6.0 0.00 0.00 0.00 48 1013.6
20260504002503 63 215 2.0 10.0 0.00 0.00 0.00 48 1013.5
20260504002003 63 217 5.0 10.0 0.00 0.00 0.00 48 1013.5
20260504001520 63 217 4.0 9.0 0.00 0.00 0.00 47 1013.5
20260504001005 63 221 4.0 11.0 0.00 0.00 0.00 47 1013.6
20260504000507 63 224 5.0 11.0 0.00 0.00 0.00 47 1013.5
20260504000014 64 232 5.0 13.0 0.00 0.00 0.00 46 1013.6
20260503235505 64 223 8.0 13.0 0.00 0.00 0.00 46 1013.6
20260503235009 64 228 6.0 14.0 0.00 0.00 0.00 45 1013.6
20260503234520 65 213 5.0 15.0 0.00 0.00 0.00 46 1013.7
20260503234007 65 207 5.0 15.0 0.00 0.00 0.00 46 1013.7
20260503233507 65 213 7.0 16.0 0.00 0.00 0.00 45 1013.7
20260503233021 65 209 7.0 16.0 0.00 0.00 0.00 44 1013.8
20260503232514 65 199 7.0 16.0 0.00 0.00 0.00 43 1013.8
20260503232004 65 259 7.0 16.0 0.00 0.00 0.00 44 1013.8
20260503231509 66 214 6.0 16.0 0.00 0.00 0.00 44 1013.8
20260503231004 66 216 7.0 14.0 0.00 0.00 0.00 44 1013.9
20260503230507 66 210 7.0 14.0 0.00 0.00 0.00 44 1014.0
20260503230030 66 243 7.0 20.0 0.00 0.00 0.00 44 1014.0
20260503225505 66 220 4.0 20.0 0.00 0.00 0.00 44 1014.1
20260503225005 66 215 7.0 18.0 0.00 0.00 0.00 43 1014.2
20260503224515 66 236 9.0 17.0 0.00 0.00 0.00 44 1014.3
20260503224008 66 211 12.0 19.0 0.00 0.00 0.00 41 1014.5
20260503223511 66 191 12.0 19.0 0.00 0.00 0.00 42 1014.6
20260503223021 66 245 8.0 18.0 0.00 0.00 0.00 44 1014.7
20260503222506 66 200 5.0 16.0 0.00 0.00 0.00 44 1014.8
20260503222007 66 217 11.0 16.0 0.00 0.00 0.00 42 1014.9
20260503221525 66 192 5.0 23.0 0.00 0.00 0.00 45 1015.0
20260503221004 66 232 10.0 23.0 0.00 0.00 0.00 42 1015.0
20260503220504 66 199 12.0 22.0 0.00 0.00 0.00 43 1015.1
20260503220011 66 228 15.0 22.0 0.00 0.00 0.00 41 1015.2
20260503215503 66 229 12.0 20.0 0.00 0.00 0.00 43 1015.4
20260503215003 66 216 10.0 20.0 0.00 0.00 0.00 43 1015.3
20260503214534 67 194 12.0 21.0 0.00 0.00 0.00 43 1015.4
20260503214007 67 209 9.0 21.0 0.00 0.00 0.00 43 1015.4
20260503213507 67 217 8.0 20.0 0.00 0.00 0.00 44 1015.6
20260503213020 67 251 13.0 20.0 0.00 0.00 0.00 42 1015.6
20260503212508 67 219 7.0 18.0 0.00 0.00 0.00 47 1015.7
20260503212009 67 226 10.0 16.0 0.00 0.00 0.00 41 1015.8
20260503211522 67 217 9.0 16.0 0.00 0.00 0.00 43 1015.8
20260503211013 66 232 9.0 23.0 0.00 0.00 0.00 45 1016.2
20260503210511 66 238 12.0 23.0 0.00 0.00 0.00 41 1016.3
20260503210010 67 215 12.0 20.0 0.00 0.00 0.00 42 1016.2
20260503205503 67 180 6.0 21.0 0.00 0.00 0.00 44 1016.2
20260503205003 67 228 12.0 21.0 0.00 0.00 0.00 43 1016.4
20260503204511 67 204 15.0 21.0 0.00 0.00 0.00 45 1016.3
20260503204005 66 256 7.0 18.0 0.00 0.00 0.00 44 1016.6
20260503203503 66 201 10.0 18.0 0.00 0.00 0.00 43 1016.7
20260503203025 66 162 11.0 24.0 0.00 0.00 0.00 45 1016.8
20260503202507 66 237 13.0 24.0 0.00 0.00 0.00 44 1016.9
20260503202013 66 212 8.0 19.0 0.00 0.00 0.00 43 1017.1
20260503201521 66 185 8.0 17.0 0.00 0.00 0.00 45 1017.1
20260503201007 66 228 10.0 17.0 0.00 0.00 0.00 44 1017.2
20260503200509 66 176 7.0 15.0 0.00 0.00 0.00 45 1017.3
20260503200028 66 165 8.0 17.0 0.00 0.00 0.00 43 1017.3
20260503195512 66 217 8.0 17.0 0.00 0.00 0.00 46 1017.5
20260503195008 66 201 8.0 20.0 0.00 0.00 0.00 45 1017.5
20260503194509 66 242 10.0 20.0 0.00 0.00 0.00 43 1017.6
20260503194006 66 226 10.0 17.0 0.00 0.00 0.00 44 1017.9
20260503193508 66 192 10.0 14.0 0.00 0.00 0.00 46 1018.1
20260503193033 66 263 4.0 12.0 0.00 0.00 0.00 48 1018.0
20260503192504 66 235 5.0 17.0 0.00 0.00 0.00 46 1018.1
20260503192007 65 281 11.0 17.0 0.00 0.00 0.00 45 1018.3
20260503191544 66 220 8.0 15.0 0.00 0.00 0.00 45 1018.3
20260503191008 66 220 9.0 15.0 0.00 0.00 0.00 47 1018.5
20260503190508 66 250 4.0 15.0 0.00 0.00 0.00 47 1018.6
20260503190030 65 256 7.0 19.0 0.00 0.00 0.00 49 1018.8
20260503185508 64 234 10.0 19.0 0.00 0.00 0.00 43 1018.8
20260503185009 65 247 9.0 16.0 0.00 0.00 0.00 43 1018.9
20260503184527 65 241 7.0 16.0 0.00 0.00 0.00 46 1018.9
20260503184005 64 222 8.0 14.0 0.00 0.00 0.00 42 1018.9
20260503183507 64 221 7.0 13.0 0.00 0.00 0.00 42 1019.1
20260503183012 64 138 4.0 16.0 0.00 0.00 0.00 46 1019.2
20260503182507 64 182 9.0 16.0 0.00 0.00 0.00 44 1019.4
20260503182006 64 184 8.0 14.0 0.00 0.00 0.00 43 1019.4
20260503181519 65 257 10.0 14.0 0.00 0.00 0.00 42 1019.4
20260503181008 64 239 7.0 15.0 0.00 0.00 0.00 50 1019.5
20260503180507 64 234 8.0 15.0 0.00 0.00 0.00 44 1019.6
20260503180026 64 238 4.0 15.0 0.00 0.00 0.00 45 1019.7
20260503175508 64 234 10.0 15.0 0.00 0.00 0.00 46 1019.7
20260503175007 64 242 8.0 14.0 0.00 0.00 0.00 45 1020.0
20260503174525 64 231 6.0 16.0 0.00 0.00 0.00 46 1020.0
20260503174012 64 220 7.0 16.0 0.00 0.00 0.00 50 1020.1
20260503173508 63 201 6.0 14.0 0.00 0.00 0.00 48 1020.3
20260503173026 63 207 10.0 14.0 0.00 0.00 0.00 45 1020.3
20260503172505 63 190 6.0 12.0 0.00 0.00 0.00 45 1020.4
20260503172008 63 197 6.0 12.0 0.00 0.00 0.00 45 1020.5
20260503171517 63 205 5.0 15.0 0.00 0.00 0.00 46 1020.6
20260503171007 63 184 8.0 15.0 0.00 0.00 0.00 43 1020.7
20260503170507 63 227 5.0 13.0 0.00 0.00 0.00 45 1020.7
20260503151009 58 220 3.0 11.0 0.00 0.02 0.00 54 1021.8
20260503150508 58 204 3.0 11.0 0.00 0.02 0.00 52 1021.8
20260503131004 47 226 2.0 5.0 0.00 0.02 0.00 80 1021.8
20260503130506 46 213 2.0 5.0 0.00 0.02 0.00 84 1021.7
20260503110511 33 133 0.0 0.0 0.00 0.02 0.00 94 1021.2
20260503090507 34 133 0.0 2.0 0.00 0.02 0.00 94 1020.9
20260503081524 34 84 0.0 0.0 0.00 0.02 0.00 94 1020.8
20260503081008 34 84 0.0 0.0 0.00 0.02 0.00 94 1020.8
20260503080506 34 84 0.0 0.0 0.00 0.02 0.00 93 1020.8
20260503072512 35 84 0.0 0.0 0.00 0.02 0.00 93 1020.6
20260503072004 35 84 0.0 0.0 0.00 0.02 0.00 93 1020.6
20260503071508 35 84 0.0 0.0 0.00 0.02 0.00 93 1020.6
20260503071003 35 84 0.0 0.0 0.00 0.02 0.00 93 1020.5
20260503070503 35 84 0.0 0.0 0.00 0.02 0.00 93 1020.5